Location: Gleizolles
(44.4833°N, 6.7667°E)
Time: 02:16:15
(UTC+00:00)

Vanguard 1 Rocket - Pass Details

Date: 27 June 2024
Orbit: 650 x 4219 km, 34.3° (Epoch: 15 July)

Event Time Altitude Azimuth Distance (km) Brightness Sun altitude
Rises 22:31:44 0° 209° (SSW) 4,289 - -20.7°
Reaches altitude 10° 22:34:32 10° 198° (SSW) 3,677 - -20.8°
Exits shadow 22:40:22 29° 160° (SSE) 3,163 9.5 -21.1°
Maximum altitude 22:43:03 31° 140° (SE) 3,338 9.7 -21.2°
Drops below altitude 10° 22:57:22 10° 87° (E) 6,268 11.6 -21.7°
Sets 23:04:05 0° 80° (E) 7,806 12.2 -21.9°
